TDRS 8

Last updated on May 23, 2019, 3:05 a.m. UTC

1 26388U 00034A   19142.69676228 -.00000236  00000-0  00000+0 0  9998
2 26388   8.6252  50.3165 0013842 306.6866 222.7954  1.00264728 69270
UTC
Height (km)
Latitude
Longitude
Inclination
Orbital Period
UTC large
Height (km)
Speed (km/s)
/
Latitude / Longitude
Inclination (degrees)
Orbital Period (minutes)
Azimuth
Elevation
Range (km)
Doppler Factor
iOS Compass Heading
iOS Angle

Next 30 passes for location: Hong Kong

Rise time Rise Azimuth (degrees) Set time Set Azimuth (degrees) Duration Max altitude (degrees)

No matching passes for this satellites